Location: Limerick
(52.6650°N, 8.6230°W)
Time: 19:20:17
(UTC+01:00)

ISS - Pass Details

Date: 26 May 2017
Orbit: 402 x 408 km, 51.6° (Epoch: 29 May)

Event Time Altitude Azimuth Distance (km) Brightness Sun altitude
Rises 23:53:17 0° 254° (WSW) 2,331 0.1 -13.0°
Reaches altitude 10° 23:55:23 10° 251° (WSW) 1,471 -0.9 -13.1°
Maximum altitude 23:58:39 65° 169° (S) 453 -3.9 -13.3°
Drops below altitude 10° 00:01:55 10° 87° (E) 1,470 -1.2 -13.5°
Sets 00:04:01 0° 85° (E) 2,330 -0.1 -13.6°
